sat.trackr.live / text

‹ back to catalog

STARLINK-34409

NORAD 64485 · 2025-133P

PAYLOAD ACTIVE UNKNOWN

§ Identity

Operator
Country
US
Launch date
2025-06-23
Launch site
AFETR
Launch vehicle
Mass (kg)
RCS (m²)

Purposes: comms

External: N2YO · Heavens-Above · Gunter

§ Orbital elements

Epoch: 2026-05-25T05:31:44.685120Z

Period
94.10 min
Inclination
53.1574°
Eccentricity
0.0001055
Mean motion
15.30211926 rev/d
Perigee alt
474.5 km
Apogee alt
475.9 km
Semi-major
6,853.3 km
B*
5.8118e-4
RAAN
121.5208°
Arg perigee
94.9365°
Mean anomaly
265.1757°
Rev number
5,290

§ Raw data

STARLINK-344091 64485U 25133P   26145.23037830  .00016899  00000+0  58118-3 0  99932 64485  53.1574 121.5208 0001055  94.9365 265.1757 15.30211926 52909

JSON: /api/v1/satellites/64485 · /tle

For live sub-satellite position, see the globe view (requires WebGL).

§ Visibility from observer

Set your observer location to see the next 7 days of passes ≥ 10°. The values pass through the URL so the page stays shareable.

No JS? Fill the form by hand. The geolocation button needs JavaScript.